Wind_Speed
13 13 6 3 23 10 9 8 11 4 2 4 5 5 8 10 7 5 5 6 6 6 8 8 8 9 11 13 12 12 12 12 10 10 10 10 9 8 7 7 7 7 7 7 6 6 10 11 11
13 7 9 9 13 11 9 11 6 9 5 4 6 10 9 6 4 5 5 6 6 6 8 9 9 11 12 12 13 13 12 12 9 10 11 10 9 7 5 5 5 5 4 4 6 8 11 10 11
14 10 10 11 8 7 10 17 2 3 16 13 12 3 8 4 5 5 6 6 6 6 9 10 9 10 11 12 12 12 11 12 9 8 9 8 7 6 5 5 5 5 4 4 5 7 9 11 13
16 12 10 11 8 5 11 6 5 2 15 17 8 7 2 2 4 5 4 3 6 8 8 8 10 11 12 11 12 10 9 9 9 6 6 6 5 4 4 4 6 6 6 5 6 7 8 8 10
18 15 13 12 7 0 5 3 1 3 16 12 17 15 15 9 3 4 3 5 6 7 8 9 9 10 11 11 10 10 9 9 8 6 5 4 3 4 4 4 5 7 6 7 6 6 7 8 8
23 18 17 15 10 5 11 2 9 9 12 17 18 5 2 13 7 3 2 3 2 5 7 8 9 10 9 8 8 7 7 7 8 5 3 4 2 2 4 4 6 7 7 8 8 6 7 9 8
26 21 21 19 13 5 13 6 4 8 13 15 21 10 6 9 8 5 1 1 3 5 6 6 7 8 7 7 7 6 6 6 6 4 4 4 4 3 3 4 6 7 8 8 9 6 8 9 8
30 26 22 23 16 12 11 6 7 7 10 14 19 3 1 3 7 3 1 6 7 6 6 5 5 7 7 6 6 7 6 5 5 3 4 4 4 4 2 2 4 5 6 7 8 7 5 7 7
35 29 27 28 23 18 17 9 8 6 13 10 4 3 5 8 4 4 6 8 10 8 8 8 8 7 8 8 6 6 5 5 5 4 4 5 5 5 3 3 3 4 4 5 7 7 5 4 5
35 33 32 31 24 22 19 14 6 8 3 6 3 16 12 8 7 8 9 11 11 8 6 6 7 7 8 7 6 7 5 6 5 5 5 4 4 5 5 5 5 5 3 3 5 8 7 5 3
36 34 35 35 28 23 22 13 11 9 4 6 7 12 9 9 6 7 10 13 11 7 6 6 5 5 6 4 5 6 5 6 5 4 3 3 4 5 5 5 8 8 8 8 8 9 10 8 7
34 38 38 39 32 28 29 24 13 13 12 9 11 14 11 8 6 5 9 12 13 9 6 7 5 3 3 2 4 5 6 6 5 5 4 4 5 6 8 9 10 10 11 13 14 11 12 12 9
31 39 43 40 36 34 33 28 19 16 16 13 11 14 18 17 13 11 9 11 11 11 9 7 5 4 4 3 3 3 4 6 6 5 3 4 5 8 9 11 13 15 15 16 16 17 17 17 16
34 40 46 42 39 36 38 39 33 23 14 16 17 15 14 17 17 15 12 11 12 10 10 10 7 5 2 1 2 4 5 6 6 5 4 5 7 9 10 11 13 15 16 17 18 18 19 19 20
35 38 38 34 37 39 37 36 28 16 15 18 19 19 15 13 16 17 15 16 15 13 13 12 12 12 10 8 7 7 7 7 8 7 7 6 8 9 8 11 13 15 16 16 17 18 20 20 20
29 31 32 37 39 38 35 30 24 22 21 23 20 19 17 14 18 19 19 18 17 16 16 15 15 12 10 10 10 11 11 12 12 11 12 13 12 13 14 14 16 16 15 16 17 20 23 23 23
28 31 34 37 38 37 37 31 26 25 24 21 15 14 13 18 20 21 20 21 22 20 19 19 19 18 16 15 14 15 15 14 14 16 17 19 18 19 19 20 20 20 21 23 23 23 23 24 26
28 31 36 36 40 41 39 35 27 26 24 18 13 15 16 14 21 23 24 25 25 26 24 24 25 25 24 23 21 21 21 21 21 21 22 23 25 26 25 27 26 26 27 27 29 29 29 29 29
31 32 34 37 43 42 42 42 30 29 22 19 17 17 19 20 22 22 28 32 33 34 33 32 37 24 30 29 29 28 29 28 29 29 30 32 32 33 35 34 32 31 31 31 30 32 32 33 33
34 35 36 38 40 45 45 44 44 34 27 26 18 19 24 25 27 28 32 33 38 39 40 34 36 31 34 34 35 33 32 32 34 36 35 37 38 37 39 37 36 35 36 36 36 36 37 39 39
35 37 35 36 42 46 46 46 45 37 32 28 23 23 27 29 31 31 31 31 35 40 43 42 38 38 38 38 37 37 35 36 36 40 42 43 41 39 37 37 37 38 39 41 42 42 43 44 45
37 34 35 38 42 46 45 48 43 38 39 33 28 29 29 30 30 32 30 32 32 37 41 47 49 45 43 41 41 42 44 41 44 45 45 43 37 37 38 39 40 42 45 47 49 50 50 49 48
40 36 39 40 44 45 49 46 47 45 43 35 33 34 35 33 30 29 29 27 25 27 29 36 44 50 50 48 48 49 49 52 49 43 44 40 40 42 44 46 47 49 51 52 52 52 51 51 51
40 40 38 42 42 52 46 45 48 48 41 39 37 40 40 40 30 26 28 27 24 23 25 28 31 36 42 47 49 50 50 49 46 45 39 42 45 47 48 49 49 50 51 52 52 52 53 53 53
41 38 41 40 41 50 39 44 48 45 44 45 45 45 41 33 31 32 28 32 30 30 29 28 30 32 32 33 36 38 38 39 38 40 43 46 48 49 48 48 47 50 52 52 52 52 53 54 55
41 40 40 44 45 43 40 51 52 47 49 49 46 41 39 34 36 37 38 35 37 36 37 33 35 34 35 35 35 36 38 40 42 46 48 50 52 50 47 50 52 52 51 52 52 53 54 55 56
38 48 45 46 46 45 48 54 48 44 44 42 41 41 39 38 40 38 38 39 36 37 39 42 41 41 43 43 43 43 44 46 47 49 52 53 51 50 52 53 54 53 54 55 56 56 57 57 58
42 45 53 51 51 48 49 47 49 44 44 44 43 42 46 43 40 38 38 37 39 40 43 45 49 50 52 53 52 51 51 52 53 53 53 48 45 48 52 55 56 58 58 58 60 59 60 61 62
41 47 48 48 47 54 53 55 57 53 48 50 53 51 48 51 45 41 42 40 43 45 49 53 49 46 48 25 43 46 44 42 40 42 44 44 48 54 57 57 56 58 58 59 61 62 63 64 65
48 53 54 50 49 47 53 63 62 55 54 53 53 50 47 46 46 44 49 52 48 40 46 53 68 49 45 40 35 36 36 39 43 47 49 51 54 57 58 58 57 58 60 61 62 63 64 64 64
Wind_Direction
162 170 184 58 169 168 208 183 104 124 284 354 335 343 17 353 331 305 309 2 25 0 333 349 6 7 9 6 2 5 11 11 1 358 351 0 4 17 18 19 20 12 13 16 32 39 48 61 58
164 142 148 141 170 192 176 170 187 206 356 275 4 352 346 342 4 0 24 19 0 337 327 351 7 7 3 2 0 3 6 9 4 356 353 356 359 9 21 12 11 356 0 16 28 40 45 45 42
163 163 169 176 149 158 142 135 149 104 41 11 29 303 295 321 37 19 356 340 331 326 331 348 3 2 354 352 354 356 359 2 4 352 354 352 355 8 5 5 354 338 342 357 29 37 47 46 58
179 188 205 204 188 171 146 103 90 96 56 32 353 301 179 350 341 14 27 331 299 309 321 342 356 351 349 349 347 349 351 355 0 349 348 345 347 358 352 352 340 334 337 351 18 22 44 56 61
192 196 202 208 214 267 195 257 10 173 46 22 348 286 240 270 315 321 293 283 302 322 329 343 353 344 340 342 346 343 347 352 359 346 334 331 331 330 328 334 338 337 332 335 351 8 43 52 43
199 201 209 222 215 162 170 341 28 42 24 359 350 351 208 199 213 303 70 49 15 353 340 353 343 337 341 337 339 337 335 345 348 331 300 290 260 279 302 324 334 332 328 330 336 2 33 43 30
204 197 219 233 217 272 229 216 156 18 358 355 343 313 169 172 223 225 195 279 306 317 315 346 341 333 332 334 324 319 330 346 340 337 286 290 273 266 290 327 338 330 330 338 341 6 23 30 46
204 201 219 245 228 197 248 292 302 314 334 320 317 281 69 191 206 159 39 344 331 306 290 287 306 314 310 304 306 318 331 343 327 308 250 248 237 241 256 294 323 325 330 340 340 346 29 35 38
204 198 224 237 250 232 248 270 293 318 316 354 3 259 250 207 244 301 319 332 334 323 307 289 276 286 292 301 305 299 317 320 311 285 236 242 231 239 220 256 315 335 345 329 322 316 356 11 17
209 206 222 235 238 250 256 270 270 284 357 67 122 135 199 228 270 301 315 330 333 328 304 291 273 286 293 296 304 309 311 311 314 297 244 230 234 234 223 233 260 287 311 331 315 299 297 305 336
216 207 227 237 237 237 254 262 249 271 276 165 140 157 212 253 259 293 321 331 333 320 293 266 270 270 274 281 305 309 309 302 314 302 258 254 255 241 259 276 280 281 287 291 293 299 307 314 312
218 213 226 238 238 231 253 268 270 275 272 259 237 218 227 239 250 291 307 321 328 325 305 270 265 262 266 275 297 304 293 285 281 279 262 262 268 266 258 254 257 269 278 284 287 288 293 294 294
227 221 227 240 240 240 240 261 269 282 280 275 267 251 247 246 260 266 281 298 311 322 313 294 285 267 257 257 270 279 275 278 270 277 277 267 270 273 279 287 294 295 296 295 295 297 297 299 302
228 221 229 241 247 246 247 254 267 285 294 288 282 274 255 242 235 235 246 264 288 302 298 284 276 280 243 178 208 225 246 243 260 265 284 301 318 312 308 299 289 283 281 283 287 288 290 294 294
227 234 245 254 256 253 256 261 272 286 299 298 291 292 280 241 229 234 237 247 262 276 284 272 259 235 232 231 236 244 266 268 267 268 273 307 309 299 302 292 298 288 287 290 287 285 285 285 284
232 249 255 255 257 261 269 266 277 288 294 302 298 290 273 240 241 246 237 242 249 263 273 280 275 269 248 246 255 253 261 269 271 280 295 296 301 303 302 306 298 299 295 290 298 288 280 281 282
236 247 254 258 258 260 266 273 280 287 287 285 295 291 267 252 244 248 247 247 257 257 265 275 282 278 279 280 275 283 286 280 280 275 289 296 296 297 294 295 288 287 285 283 284 282 284 286 285
239 241 250 256 252 257 262 269 279 278 271 265 282 300 300 284 262 265 263 263 257 257 263 263 266 272 272 274 280 285 283 285 287 287 289 288 289 292 291 289 285 284 284 284 286 285 279 277 279
237 244 249 256 254 258 260 260 260 255 252 254 269 287 288 290 286 282 279 263 260 263 251 251 255 272 265 268 275 278 286 285 287 288 289 289 288 290 290 286 284 284 282 284 287 288 287 282 277
233 238 246 251 252 255 256 256 253 252 255 262 271 279 275 281 283 286 284 277 271 260 265 265 272 269 272 270 270 270 272 278 285 285 286 287 291 285 287 286 287 288 285 283 284 284 284 283 281
235 234 235 244 248 253 254 253 248 254 260 266 271 267 272 286 290 289 279 274 268 264 262 262 261 260 261 264 266 271 277 277 280 284 282 284 285 283 283 282 283 286 287 287 286 285 285 285 283
234 233 227 228 240 244 247 255 255 259 258 262 266 267 278 283 294 291 275 269 268 262 261 261 261 262 264 267 271 272 274 276 280 285 282 286 281 281 285 285 285 285 285 286 287 287 287 287 287
235 222 225 229 234 241 245 251 254 254 256 263 273 275 280 285 289 286 264 265 267 267 269 264 259 258 261 263 265 268 273 276 281 280 282 279 277 281 284 284 286 286 286 287 288 289 289 289 288
242 225 225 226 232 239 244 251 256 257 263 269 272 275 278 284 280 289 256 260 263 270 275 273 268 264 263 263 265 267 270 273 275 277 272 275 278 281 283 286 287 289 290 290 289 289 288 288 287
245 232 231 234 234 244 250 255 260 265 265 268 271 275 277 265 273 284 270 260 259 262 265 270 269 268 267 266 265 266 268 269 268 271 274 277 279 281 283 285 287 289 287 286 286 286 286 286 285
236 234 236 246 242 250 261 256 257 263 267 270 273 273 273 271 278 279 278 262 256 260 264 257 259 264 262 262 261 260 262 266 269 272 274 275 276 280 282 287 288 287 286 286 286 285 285 284 283
232 229 235 242 246 249 251 256 262 263 267 265 270 269 271 272 273 271 270 271 275 262 263 264 261 262 262 258 259 260 263 265 265 267 270 272 280 283 288 289 289 289 289 289 288 287 286 285 284
238 238 236 237 248 249 251 257 261 261 260 261 262 266 267 262 262 261 268 275 278 272 260 264 267 265 263 258 253 254 259 264 267 270 273 277 282 283 287 289 289 288 288 289 288 287 286 285 285
241 246 245 243 246 248 249 254 259 259 259 259 260 260 257 259 262 274 276 274 273 269 269 272 263 266 264 270 264 267 263 266 279 277 280 281 282 286 287 287 286 285 285 285 284 284 284 284 283
238 241 251 253 252 250 251 248 256 255 254 258 265 259 263 265 265 268 274 275 269 273 275 270 295 295 285 289 285 283 280 279 280 282 285 285 285 285 286 285 286 285 284 284 283 283 282 281 280
Height
5904 5905 5904 5901 5904 5904 5904 5905 5904 5901 5905 5906 5906 5908 5909 5908 5909 5912 5909 5908 5906 5906 5906 5905 5903 5901 5901 5900 5899 5899 5897 5896 5895 5894 5893 5893 5892 5891 5890 5889 5888 5888 5887 5887 5887 5885 5887 5885 5883
5903 5902 5902 5901 5902 5902 5905 5905 5905 5906 5908 5907 5907 5906 5907 5907 5908 5907 5908 5908 5908 5907 5907 5905 5903 5902 5902 5901 5901 5900 5899 5897 5896 5895 5895 5894 5894 5893 5891 5890 5890 5889 5889 5889 5888 5888 5887 5885 5884
5901 5901 5901 5900 5901 5903 5904 5905 5906 5906 5908 5908 5907 5908 5909 5908 5907 5906 5907 5908 5907 5908 5906 5904 5902 5902 5902 5902 5901 5901 5900 5898 5896 5895 5895 5895 5894 5894 5893 5891 5890 5890 5889 5889 5889 5889 5887 5887 5886
5900 5900 5900 5899 5901 5903 5905 5904 5906 5907 5907 5908 5909 5908 5908 5907 5908 5906 5906 5907 5908 5907 5906 5903 5901 5902 5902 5902 5901 5901 5900 5899 5897 5896 5895 5895 5895 5895 5893 5892 5891 5890 5889 5889 5890 5889 5889 5888 5888
5898 5898 5898 5899 5900 5903 5903 5903 5904 5906 5905 5908 5909 5907 5905 5908 5909 5908 5906 5907 5907 5906 5905 5903 5901 5901 5902 5901 5900 5900 5900 5899 5897 5896 5896 5895 5895 5895 5894 5893 5892 5891 5890 5889 5890 5889 5889 5889 5888
5898 5898 5898 5898 5901 5903 5901 5901 5901 5902 5904 5904 5905 5903 5899 5905 5910 5908 5906 5905 5904 5904 5904 5901 5901 5901 5900 5899 5899 5899 5899 5898 5897 5896 5896 5896 5895 5894 5894 5893 5892 5891 5890 5889 5890 5890 5890 5890 5888
5897 5897 5895 5897 5901 5900 5898 5900 5899 5900 5901 5903 5907 5905 5904 5907 5908 5905 5904 5902 5902 5902 5902 5900 5900 5900 5900 5899 5898 5898 5899 5898 5897 5896 5896 5896 5896 5895 5894 5894 5893 5892 5891 5890 5890 5891 5891 5890 5889
5895 5894 5893 5894 5899 5900 5897 5898 5899 5901 5902 5906 5907 5905 5905 5907 5907 5904 5902 5903 5901 5900 5899 5899 5899 5899 5899 5897 5897 5898 5898 5897 5896 5895 5895 5894 5894 5894 5894 5894 5893 5892 5891 5890 5890 5890 5891 5890 5889
5892 5892 5891 5892 5895 5899 5898 5897 5898 5898 5901 5905 5906 5902 5905 5905 5903 5902 5901 5900 5900 5897 5897 5897 5897 5898 5898 5897 5897 5897 5896 5895 5895 5894 5894 5894 5894 5893 5892 5893 5893 5892 5891 5890 5889 5889 5890 5890 5890
5889 5891 5889 5889 5893 5895 5897 5897 5900 5900 5902 5905 5906 5905 5905 5904 5901 5901 5899 5899 5898 5896 5896 5896 5896 5897 5897 5897 5896 5896 5895 5894 5894 5894 5894 5892 5892 5892 5892 5892 5892 5891 5890 5889 5888 5888 5888 5887 5888
5886 5890 5889 5888 5890 5894 5894 5894 5897 5898 5901 5903 5906 5905 5906 5904 5900 5898 5898 5898 5898 5896 5895 5895 5896 5896 5896 5895 5896 5895 5894 5893 5893 5892 5892 5892 5891 5891 5892 5891 5892 5890 5889 5888 5888 5887 5886 5887 5886
5883 5886 5885 5886 5888 5892 5892 5893 5895 5896 5898 5900 5902 5902 5902 5901 5899 5896 5897 5896 5897 5896 5895 5894 5894 5894 5894 5894 5894 5893 5893 5892 5891 5891 5891 5891 5890 5890 5890 5889 5889 5888 5886 5885 5885 5885 5884 5883 5884
5877 5880 5881 5883 5886 5887 5890 5891 5892 5894 5895 5895 5896 5897 5898 5897 5897 5896 5896 5896 5895 5894 5892 5892 5892 5893 5892 5892 5891 5890 5891 5891 5891 5890 5890 5889 5889 5889 5889 5887 5887 5886 5885 5884 5883 5882 5882 5880 5881
5870 5872 5875 5878 5881 5884 5885 5886 5888 5891 5891 5890 5889 5890 5891 5891 5893 5894 5895 5895 5894 5893 5894 5893 5890 5889 5889 5889 5889 5889 5890 5890 5889 5888 5888 5888 5888 5887 5886 5886 5886 5885 5884 5883 5881 5880 5879 5878 5877
5868 5868 5872 5875 5876 5877 5880 5881 5885 5888 5888 5886 5885 5884 5885 5887 5888 5890 5891 5891 5891 5890 5891 5892 5891 5889 5888 5887 5887 5887 5887 5887 5886 5885 5885 5885 5885 5885 5884 5884 5882 5882 5881 5880 5879 5878 5877 5876 5875
5869 5868 5869 5870 5872 5875 5875 5878 5880 5882 5883 5882 5880 5880 5880 5881 5884 5885 5885 5885 5886 5886 5885 5886 5886 5886 5885 5886 5886 5886 5885 5884 5883 5883 5883 5883 5882 5882 5881 5880 5879 5878 5877 5876 5875 5874 5872 5872 5871
5864 5865 5866 5867 5869 5871 5871 5872 5875 5877 5877 5876 5877 5876 5875 5875 5877 5878 5878 5879 5879 5878 5879 5878 5877 5879 5880 5881 5881 5880 5880 5880 5879 5878 5878 5878 5878 5877 5876 5875 5874 5872 5872 5871 5870 5870 5868 5867 5866
5861 5861 5861 5864 5867 5865 5865 5867 5869 5870 5871 5871 5871 5870 5870 5870 5870 5871 5873 5873 5872 5872 5872 5872 5872 5872 5874 5875 5874 5874 5873 5873 5873 5873 5873 5872 5871 5870 5869 5868 5867 5866 5864 5863 5862 5862 5861 5861 5861
5853 5854 5855 5858 5860 5858 5861 5861 5863 5864 5866 5867 5866 5866 5866 5866 5865 5866 5866 5866 5867 5867 5866 5866 5865 5865 5867 5868 5868 5867 5867 5866 5866 5866 5865 5864 5862 5861 5860 5859 5859 5858 5857 5855 5855 5853 5852 5851 5851
5847 5848 5849 5851 5851 5850 5853 5853 5854 5858 5860 5859 5861 5862 5860 5861 5862 5861 5859 5857 5857 5859 5859 5859 5859 5859 5860 5860 5860 5859 5859 5859 5859 5858 5857 5855 5854 5852 5851 5849 5848 5847 5847 5846 5845 5845 5843 5841 5840
5842 5842 5847 5848 5845 5843 5844 5843 5848 5851 5851 5851 5853 5854 5854 5855 5854 5852 5850 5850 5849 5849 5850 5850 5851 5852 5852 5852 5851 5850 5850 5850 5850 5849 5848 5847 5845 5843 5842 5840 5839 5838 5836 5835 5834 5833 5833 5831 5829
5835 5838 5840 5839 5838 5836 5837 5832 5836 5842 5842 5845 5847 5848 5849 5849 5847 5844 5842 5842 5840 5839 5839 5840 5841 5842 5842 5842 5842 5842 5842 5841 5841 5839 5838 5837 5835 5833 5832 5831 5830 5828 5827 5825 5823 5821 5820 5819 5817
5826 5827 5827 5827 5827 5826 5824 5825 5828 5829 5832 5839 5840 5841 5842 5841 5839 5837 5835 5833 5833 5832 5831 5831 5831 5832 5833 5833 5833 5832 5831 5831 5830 5829 5828 5827 5826 5824 5823 5821 5819 5817 5815 5813 5811 5808 5807 5805 5804
5818 5819 5817 5817 5817 5810 5817 5818 5816 5819 5826 5827 5830 5831 5833 5833 5832 5831 5830 5828 5826 5825 5824 5823 5822 5822 5822 5822 5822 5821 5821 5821 5820 5819 5818 5817 5816 5814 5812 5810 5808 5805 5802 5800 5798 5796 5794 5792 5791
5811 5812 5810 5809 5807 5803 5812 5809 5808 5812 5816 5817 5820 5821 5823 5824 5825 5825 5823 5820 5818 5816 5816 5815 5814 5813 5812 5811 5811 5811 5811 5810 5809 5809 5808 5806 5805 5803 5801 5799 5797 5794 5791 5789 5787 5784 5782 5780 5777
5803 5803 5802 5799 5801 5802 5803 5797 5800 5807 5806 5809 5811 5811 5812 5815 5815 5815 5811 5810 5808 5807 5807 5806 5806 5805 5804 5803 5802 5802 5801 5800 5799 5798 5797 5795 5793 5792 5791 5788 5785 5782 5779 5776 5773 5771 5768 5766 5763
5795 5793 5794 5790 5791 5792 5793 5792 5795 5796 5798 5801 5802 5801 5803 5804 5804 5803 5799 5797 5796 5796 5795 5796 5795 5794 5793 5792 5791 5791 5790 5789 5787 5786 5785 5784 5783 5781 5778 5775 5772 5768 5764 5761 5759 5756 5753 5750 5748
5782 5784 5783 5784 5782 5782 5783 5784 5785 5788 5789 5790 5790 5791 5792 5792 5792 5791 5790 5788 5788 5788 5786 5784 5784 5783 5781 5778 5778 5775 5777 5776 5776 5775 5775 5773 5772 5768 5765 5762 5759 5755 5751 5746 5743 5740 5737 5734 5732
5778 5773 5772 5775 5775 5772 5773 5775 5774 5776 5778 5780 5779 5780 5781 5781 5782 5782 5781 5779 5778 5777 5776 5775 5772 5772 5771 5766 5766 5766 5766 5765 5764 5763 5762 5760 5759 5756 5752 5749 5746 5743 5738 5734 5730 5726 5722 5719 5715
5764 5764 5761 5760 5761 5762 5763 5764 5765 5765 5767 5767 5768 5768 5770 5770 5770 5771 5770 5770 5769 5765 5765 5761 5759 5758 5759 5758 5754 5754 5755 5754 5753 5751 5748 5746 5743 5741 5738 5734 5730 5727 5724 5719 5715 5710 5707 5703 5700